Home   Weather   Coachella   Past weeks
Flag for USA

Past Weather in Coachella, California, USA — Yesterday and Last 2 Weeks

Now
107 °F

Sunny.


Feels Like: 109 °F
Forecast: 108 / 85 °F
Wind: 9 mph from Northwest

Location: Thermal Airport

Current Time: Jul 23, 2019 at 1:28:54 pm

Latest Report: Jul 23, 2019 at 12:52 pm


Visibility: 10 mi

Pressure: 29.86 "Hg

Humidity: 22%

Dew Point: 60 °F

Location of CoachellaLocation

Past Weather in Coachella — Graph

°F

Coachella Temperature Yesterday

Maximum temperature yesterday: 106 °F (at 12:52 pm)
Minimum temperature yesterday: 83 °F (at 5:52 am)
Average temperature yesterday: 94 °F

High & Low Weather Summary for the Past Weeks

 TemperatureHumidityPressure
High118 °F (Jul 15, 4:52 pm)68% (Jul 23, 4:52 am)29.91 "Hg (Jul 23, 4:52 am)
Low67 °F (Jul 9, 5:52 am)4% (Jul 15, 4:52 pm)29.58 "Hg (Jul 12, 6:52 pm)
Average97 °F25%29.75 "Hg
* Reported Jul 8 11:52 am — Jul 23 11:52 am, Coachella. Weather by CustomWeather, © 2019

Note: Actual official high and low records may vary slightly from our data, if they occured in-between our weather recording intervals... More about our weather records

Advertising

Coachella Weather History for the Previous 24 Hours

Scroll right to see more
 ConditionsComfort  
Time TempWeatherWind HumidityBarometerVisibility
11:52 am
Tue, Jul 23
106 °FSunny.7 mph26%29.88 "Hg10 mi
10:52 am103 °FSunny.8 mph31%29.89 "Hg10 mi
9:52 am100 °FSunny.10 mph33%29.90 "Hg10 mi
8:52 am99 °FSunny.10 mph31%29.91 "Hg10 mi
7:52 am92 °FSunny.6 mph54%29.91 "Hg10 mi
6:52 am90 °FSunny.5 mph59%29.90 "Hg10 mi
5:52 am87 °FSunny.No wind63%29.89 "Hg10 mi
4:52 am85 °FClear.No wind68%29.88 "Hg10 mi
3:52 am87 °FClear.No wind61%29.85 "Hg10 mi
2:52 am87 °FClear.5 mph61%29.84 "Hg10 mi
1:52 am87 °FClear.No wind63%29.83 "Hg10 mi
12:52 am89 °FClear.5 mph57%29.84 "Hg10 mi
11:52 pm
Mon, Jul 22
88 °FClear.No wind59%29.84 "Hg10 mi
10:52 pm88 °FClear.3 mph55%29.83 "Hg10 mi
9:52 pm90 °FClear.No wind50%29.81 "Hg10 mi
8:52 pm93 °FClear.5 mph44%29.79 "Hg10 mi
7:52 pm99 °FClear.3 mph33%29.78 "Hg10 mi
6:52 pm100 °FSunny.6 mph34%29.78 "Hg10 mi
5:52 pm100 °FPassing clouds.7 mph35%29.80 "Hg10 mi
4:52 pm101 °FSunny.7 mph31%29.82 "Hg10 mi
3:52 pm102 °FSunny.10 mph31%29.83 "Hg10 mi
2:52 pm104 °FSunny.10 mph29%29.83 "Hg10 mi
1:52 pm106 °FSunny.8 mph26%29.84 "Hg10 mi
Weather by CustomWeather, © 2019

See weather overview